Weather History for Owosso, MI

Change the Weather History Date:

Tuesday, October 2, 2012

  Actual Average (KFNT) Record (KFNT)
Temperature  
Mean Temperature 61 °F 54 °F  
Max Temperature 71 °F 65 °F 85 °F (1922)
Min Temperature 51 °F 44 °F 27 °F (1974)
Degree Days  
Heating Degree Days 4 11  
Month to date heating degree days 22  
Since 1 July heating degree days 232  
Cooling Degree Days 0 1  
Month to date cooling degree days 2  
Year to date cooling degree days 528  
Growing Degree Days 11 (Base 50)    
Moisture  
Dew Point 48 °F    
Average Humidity 71    
Maximum Humidity 95    
Minimum Humidity 33    
Precipitation  
Precipitation 0.00 in 0.09 in 0.63 in (1925)
Month to date precipitation 0.19  
Year to date precipitation 24.50  
Snow  
Snow 0.00 in 0.00 in T in ()
Month to date snowfall 0.0  
Since 1 July snowfall 0.0  
Since 1 September snowfall 0.0  
Snow Depth -    
Sea Level Pressure  
Sea Level Pressure 29.88 in    
Wind  
Wind Speed 2 mph (NE)    
Max Wind Speed 10 mph    
Max Gust Speed 16 mph    
Visibility 10 miles    
Events      
T = Trace of Precipitation, MM = Missing Value Source: NWS Daily Summary

Daily Weather History Graph

Daily Weather History Graph

Search for Another Location

Airport:

Trip Planner

Search our weather history database for the weather conditions in past years. The results will help you decide how hot, cold, wet, or windy it might be!

Date:

Astronomy

Oct. 02, 2012 Rise Set
Actual Time 7:35 AM EDT 7:15 PM EDT
Civil Twilight 7:07 AM EDT 7:43 PM EDT
Nautical Twilight 6:34 AM EDT 8:16 PM EDT
Astronomical Twilight 6:01 AM EDT 8:49 PM EDT
Moon 8:22 PM EDT (10/2) 10:06 AM EDT (10/2)
Length of Visible Light 12h 36m
Length of Day
11h 39m
Waning Gibbous, 94% of the Moon is Illuminated
Oct 2
Waning Gibbous
Oct 8
Last Quarter
Oct 15
New
Oct 21
First Quarter
Oct 29
Full

Hourly Weather History & Observations

Time (EDT) Temp. Dew Point Humidity Pressure Visibility Wind Dir Wind Speed Gust Speed Precip Events Conditions
12:16 AM 52.2 °F 50.4 °F 94% 29.87 in 10.0 mi Calm Calm - N/A   Clear
12:35 AM 52.0 °F 50.0 °F 93% 29.87 in 10.0 mi Calm Calm - N/A   Clear
12:55 AM 51.8 °F 50.0 °F 94% 29.85 in 10.0 mi Calm Calm - N/A   Clear
1:16 AM 52.0 °F 50.2 °F 94% 29.85 in 10.0 mi Calm Calm - N/A   Scattered Clouds
1:35 AM 52.0 °F 50.2 °F 94% 29.84 in 10.0 mi Calm Calm - N/A   Mostly Cloudy
1:55 AM 52.0 °F 50.5 °F 95% 29.83 in 10.0 mi NNE 3.5 mph - N/A   Overcast
2:16 AM 52.9 °F 50.7 °F 92% 29.84 in 10.0 mi Calm Calm - N/A   Mostly Cloudy
2:35 AM 52.5 °F 50.5 °F 93% 29.84 in 10.0 mi Calm Calm - N/A   Scattered Clouds
3:15 AM 53.2 °F 50.7 °F 91% 29.84 in 10.0 mi Calm Calm - N/A   Mostly Cloudy
3:35 AM 52.2 °F 50.9 °F 95% 29.84 in 10.0 mi Calm Calm - N/A   Mostly Cloudy
3:55 AM 52.5 °F 50.7 °F 94% 29.83 in 10.0 mi Calm Calm - N/A   Mostly Cloudy
4:15 AM 53.1 °F 51.4 °F 94% 29.84 in 10.0 mi Calm Calm - N/A   Overcast
4:35 AM 52.2 °F 50.9 °F 95% 29.84 in 10.0 mi Calm Calm - N/A   Overcast
4:55 AM 52.7 °F 50.9 °F 94% 29.85 in 10.0 mi Calm Calm - N/A   Overcast
5:15 AM 52.5 °F 50.9 °F 94% 29.86 in 10.0 mi Calm Calm - N/A   Overcast
5:35 AM 53.6 °F 51.1 °F 91% 29.85 in 10.0 mi Calm Calm - N/A   Overcast
5:56 AM 52.7 °F 50.4 °F 92% 29.86 in 10.0 mi Calm Calm - N/A   Mostly Cloudy
6:35 AM 52.9 °F 51.3 °F 94% 29.87 in 10.0 mi Calm Calm - N/A   Overcast
6:55 AM 52.7 °F 50.2 °F 91% 29.87 in 10.0 mi Calm Calm - N/A   Overcast
7:15 AM 52.7 °F 50.0 °F 91% 29.87 in 10.0 mi Calm Calm - N/A   Mostly Cloudy
7:35 AM 52.7 °F 49.6 °F 89% 29.88 in 10.0 mi Calm Calm - N/A   Scattered Clouds
7:55 AM 52.2 °F 50.0 °F 92% 29.88 in 10.0 mi Calm Calm - N/A   Scattered Clouds
8:15 AM 52.2 °F 50.5 °F 94% 29.89 in 10.0 mi Calm Calm - N/A   Mostly Cloudy
8:35 AM 52.0 °F 50.5 °F 95% 29.89 in 10.0 mi Calm Calm - N/A   Overcast
8:55 AM 53.2 °F 50.5 °F 91% 29.89 in 10.0 mi Calm Calm - N/A   Overcast
9:15 AM 54.3 °F 50.9 °F 88% 29.89 in 10.0 mi Calm Calm - N/A   Overcast
9:35 AM 55.8 °F 50.9 °F 84% 29.89 in 10.0 mi Calm Calm - N/A   Overcast
9:55 AM 56.5 °F 51.1 °F 82% 29.90 in 10.0 mi Calm Calm - N/A   Mostly Cloudy
10:15 AM 57.6 °F 50.9 °F 78% 29.90 in 10.0 mi Calm Calm - N/A   Scattered Clouds
10:35 AM 60.1 °F 50.2 °F 70% 29.91 in 10.0 mi Calm Calm - N/A   Mostly Cloudy
10:55 AM 61.9 °F 48.7 °F 62% 29.91 in 10.0 mi East 5.8 mph - N/A   Overcast
11:15 AM 61.7 °F 46.6 °F 58% 29.90 in 10.0 mi ENE 4.6 mph - N/A   Mostly Cloudy
11:35 AM 62.1 °F 47.7 °F 59% 29.90 in 10.0 mi East 4.6 mph - N/A   Overcast
11:55 AM 62.8 °F 42.4 °F 47% 29.89 in 10.0 mi East 8.1 mph - N/A   Mostly Cloudy
12:15 PM 63.5 °F 42.8 °F 47% 29.89 in 10.0 mi East 5.8 mph - N/A   Overcast
12:35 PM 64.4 °F 42.6 °F 45% 29.89 in 10.0 mi East 6.9 mph - N/A   Overcast
12:55 PM 65.5 °F 42.1 °F 43% 29.89 in 10.0 mi ENE 5.8 mph - N/A   Overcast
1:15 PM 66.4 °F 43.3 °F 43% 29.89 in 10.0 mi ENE 8.1 mph - N/A   Overcast
1:36 PM 66.6 °F 42.4 °F 42% 29.88 in 10.0 mi NE 9.2 mph - N/A   Overcast
1:55 PM 66.6 °F 42.8 °F 42% 29.88 in 10.0 mi East 6.9 mph - N/A   Overcast
2:15 PM 66.9 °F 40.5 °F 38% 29.88 in 10.0 mi NE 5.8 mph - N/A   Overcast
2:35 PM 68.2 °F 40.3 °F 36% 29.87 in 10.0 mi ENE 5.8 mph - N/A   Overcast
2:55 PM 69.4 °F 40.5 °F 35% 29.87 in 10.0 mi ENE 8.1 mph - N/A   Overcast
3:15 PM 70.3 °F 40.5 °F 34% 29.87 in 10.0 mi ENE 8.1 mph - N/A   Mostly Cloudy
3:35 PM 70.7 °F 40.5 °F 33% 29.86 in 10.0 mi NNE 10.4 mph - N/A   Clear
3:55 PM 70.2 °F 41.2 °F 35% 29.87 in 10.0 mi ENE 8.1 mph - N/A   Clear
4:15 PM 71.1 °F 42.6 °F 36% 29.86 in 10.0 mi NNE 9.2 mph - N/A   Clear
4:35 PM 70.9 °F 43.0 °F 37% 29.86 in 10.0 mi North 6.9 mph 16.1 mph N/A   Clear
4:55 PM 69.8 °F 43.5 °F 39% 29.87 in 10.0 mi North 4.6 mph - N/A   Scattered Clouds
5:15 PM 69.6 °F 44.4 °F 40% 29.87 in 10.0 mi NNE 5.8 mph - N/A   Overcast
5:35 PM 69.1 °F 44.2 °F 41% 29.87 in 10.0 mi NE 5.8 mph - N/A   Overcast
6:16 PM 68.5 °F 44.1 °F 41% 29.87 in 10.0 mi NE 6.9 mph - N/A   Overcast
6:35 PM 68.5 °F 43.9 °F 41% 29.88 in 10.0 mi NE 6.9 mph - N/A   Mostly Cloudy
6:55 PM 66.7 °F 49.3 °F 53% 29.88 in 10.0 mi NNE 5.8 mph - N/A   Clear
7:15 PM 64.4 °F 49.6 °F 59% 29.88 in 10.0 mi NNE 5.8 mph - N/A   Clear
7:35 PM 63.0 °F 49.6 °F 62% 29.88 in 10.0 mi NNE 3.5 mph - N/A   Clear
8:15 PM 60.8 °F 50.0 °F 68% 29.90 in 10.0 mi Calm Calm - N/A   Clear
8:35 PM 59.7 °F 49.6 °F 69% 29.91 in 10.0 mi Calm Calm - N/A   Scattered Clouds
8:55 PM 58.5 °F 49.6 °F 72% 29.91 in 10.0 mi Calm Calm - N/A   Mostly Cloudy
9:15 PM 57.6 °F 49.5 °F 74% 29.92 in 10.0 mi Calm Calm - N/A   Scattered Clouds
9:35 PM 57.0 °F 49.6 °F 76% 29.92 in 10.0 mi Calm Calm - N/A   Scattered Clouds
9:55 PM 53.6 °F 49.8 °F 87% 29.92 in 10.0 mi Calm Calm - N/A   Clear
10:15 PM 54.0 °F 50.2 °F 87% 29.93 in 10.0 mi Calm Calm - N/A   Scattered Clouds
10:36 PM 54.0 °F 50.4 °F 88% 29.93 in 10.0 mi Calm Calm - N/A   Scattered Clouds
10:55 PM 55.0 °F 51.8 °F 89% 29.93 in 10.0 mi Calm Calm - N/A   Mostly Cloudy
11:15 PM 55.9 °F 52.0 °F 87% 29.94 in 10.0 mi Calm Calm - N/A   Overcast
11:36 PM 56.5 °F 52.7 °F 87% 29.94 in 10.0 mi Calm Calm - N/A   Overcast
11:55 PM 57.6 °F 52.0 °F 82% 29.93 in 10.0 mi North 3.5 mph - N/A   Overcast